TimeMST,TemperatureF,Dew PointF,Humidity,Sea Level PressureIn,VisibilityMPH,Wind Direction,Wind SpeedMPH,Gust SpeedMPH,PrecipitationIn,Events,Conditions,WindDirDegrees,DateUTC
12:15 AM,66.2,33.8,30,29.89,10.0,SE,4.6,-,N/A,,Clear,130,2013-10-01 07:15:00
12:35 AM,64.4,32.0,30,29.90,10.0,Calm,Calm,-,N/A,,Clear,0,2013-10-01 07:35:00
12:55 AM,64.4,33.8,32,29.90,10.0,Calm,Calm,-,N/A,,Clear,0,2013-10-01 07:55:00
1:15 AM,60.8,32.0,34,29.90,10.0,Calm,Calm,-,N/A,,Clear,0,2013-10-01 08:15:00
1:35 AM,60.8,33.8,36,29.90,10.0,Calm,Calm,-,N/A,,Clear,0,2013-10-01 08:35:00
1:55 AM,60.8,33.8,36,29.90,10.0,NNE,4.6,-,N/A,,Clear,30,2013-10-01 08:55:00
2:15 AM,62.6,33.8,34,29.90,10.0,North,5.8,-,N/A,,Clear,360,2013-10-01 09:15:00
2:35 AM,62.6,33.8,34,29.89,10.0,NNW,4.6,-,N/A,,Clear,330,2013-10-01 09:35:00
2:55 AM,60.8,32.0,34,29.89,10.0,NNW,3.5,-,N/A,,Clear,340,2013-10-01 09:55:00
3:15 AM,60.8,32.0,34,29.89,10.0,Calm,Calm,-,N/A,,Clear,0,2013-10-01 10:15:00
3:35 AM,60.8,33.8,36,29.90,10.0,ENE,4.6,-,N/A,,Clear,70,2013-10-01 10:35:00
3:55 AM,62.6,32.0,32,29.91,10.0,Calm,Calm,-,N/A,,Clear,0,2013-10-01 10:55:00
4:15 AM,59.0,30.2,34,29.91,10.0,NE,4.6,-,N/A,,Clear,50,2013-10-01 11:15:00
4:35 AM,59.0,30.2,34,29.92,10.0,NE,4.6,-,N/A,,Clear,40,2013-10-01 11:35:00
4:55 AM,59.0,30.2,34,29.92,10.0,NNE,5.8,-,N/A,,Clear,30,2013-10-01 11:55:00
5:15 AM,57.2,30.2,36,29.93,10.0,NNE,5.8,-,N/A,,Clear,30,2013-10-01 12:15:00
5:35 AM,57.2,30.2,36,29.93,10.0,ENE,4.6,-,N/A,,Clear,60,2013-10-01 12:35:00
5:55 AM,57.2,30.2,36,29.93,10.0,NE,4.6,-,N/A,,Clear,50,2013-10-01 12:55:00
6:15 AM,59.0,30.2,34,29.94,10.0,East,3.5,-,N/A,,Clear,80,2013-10-01 13:15:00
6:35 AM,60.8,30.2,31,29.94,10.0,East,3.5,-,N/A,,Clear,80,2013-10-01 13:35:00
6:55 AM,60.8,32.0,34,29.95,10.0,ENE,3.5,-,N/A,,Clear,70,2013-10-01 13:55:00
7:15 AM,62.6,32.0,32,29.95,10.0,East,4.6,-,N/A,,Clear,80,2013-10-01 14:15:00
7:35 AM,64.4,33.8,32,29.96,10.0,East,4.6,-,N/A,,Clear,90,2013-10-01 14:35:00
7:55 AM,66.2,33.8,30,29.96,10.0,East,5.8,-,N/A,,Clear,100,2013-10-01 14:55:00
8:15 AM,68.0,33.8,28,29.97,10.0,East,6.9,-,N/A,,Clear,90,2013-10-01 15:15:00
8:35 AM,69.8,33.8,27,29.97,10.0,East,6.9,-,N/A,,Clear,100,2013-10-01 15:35:00
8:55 AM,71.6,35.6,27,29.98,10.0,ESE,5.8,-,N/A,,Clear,120,2013-10-01 15:55:00
9:15 AM,73.4,35.6,25,29.98,10.0,SE,6.9,-,N/A,,Clear,130,2013-10-01 16:15:00
9:35 AM,75.2,35.6,24,29.99,10.0,ESE,5.8,-,N/A,,Clear,120,2013-10-01 16:35:00
9:55 AM,78.8,35.6,21,29.98,10.0,SE,5.8,-,N/A,,Clear,130,2013-10-01 16:55:00
10:15 AM,80.6,35.6,20,29.98,10.0,SE,3.5,-,N/A,,Clear,130,2013-10-01 17:15:00
10:35 AM,82.4,35.6,19,29.98,10.0,South,3.5,-,N/A,,Clear,190,2013-10-01 17:35:00
10:55 AM,82.4,35.6,19,29.97,10.0,Calm,Calm,-,N/A,,Clear,0,2013-10-01 17:55:00
11:15 AM,84.2,35.6,18,29.97,10.0,East,3.5,-,N/A,,Clear,90,2013-10-01 18:15:00
11:35 AM,86.0,35.6,17,29.96,10.0,ESE,3.5,-,N/A,,Clear,120,2013-10-01 18:35:00
11:55 AM,87.8,35.6,16,29.96,10.0,South,3.5,-,N/A,,Clear,190,2013-10-01 18:55:00
12:15 PM,87.8,35.6,16,29.95,10.0,Calm,Calm,-,N/A,,Clear,0,2013-10-01 19:15:00
12:35 PM,87.8,35.6,16,29.94,10.0,Calm,Calm,-,N/A,,Clear,0,2013-10-01 19:35:00
12:55 PM,89.6,33.8,14,29.93,10.0,Calm,Calm,-,N/A,,Clear,0,2013-10-01 19:55:00
1:15 PM,89.6,33.8,14,29.92,10.0,East,3.5,-,N/A,,Clear,100,2013-10-01 20:15:00
1:35 PM,89.6,33.8,14,29.91,10.0,Calm,Calm,-,N/A,,Clear,0,2013-10-01 20:35:00
1:55 PM,91.4,35.6,14,29.90,10.0,SW,8.1,-,N/A,,Clear,220,2013-10-01 20:55:00
2:15 PM,91.4,35.6,14,29.89,10.0,Calm,Calm,-,N/A,,Clear,0,2013-10-01 21:15:00
2:35 PM,93.2,35.6,13,29.89,10.0,SW,10.4,16.1,N/A,,Clear,220,2013-10-01 21:35:00
2:55 PM,93.2,37.4,14,29.88,10.0,South,8.1,-,N/A,,Clear,170,2013-10-01 21:55:00
3:15 PM,91.4,37.4,15,29.87,10.0,SSE,10.4,-,N/A,,Clear,150,2013-10-01 22:15:00
3:35 PM,93.2,37.4,14,29.87,10.0,SSW,9.2,-,N/A,,Clear,210,2013-10-01 22:35:00
3:55 PM,93.2,37.4,14,29.86,10.0,WSW,9.2,17.3,N/A,,Clear,240,2013-10-01 22:55:00
4:15 PM,93.2,37.4,14,29.86,10.0,WSW,13.8,17.3,N/A,,Clear,240,2013-10-01 23:15:00
4:35 PM,91.4,39.2,16,29.85,10.0,SW,3.5,-,N/A,,Clear,220,2013-10-01 23:35:00
4:55 PM,93.2,37.4,14,29.85,10.0,SSW,8.1,-,N/A,,Clear,210,2013-10-01 23:55:00
5:15 PM,91.4,37.4,15,29.85,10.0,SSW,9.2,-,N/A,,Clear,210,2013-10-02 00:15:00
5:35 PM,91.4,37.4,15,29.85,10.0,SW,9.2,-,N/A,,Clear,220,2013-10-02 00:35:00
5:55 PM,89.6,37.4,16,29.86,10.0,SW,6.9,-,N/A,,Clear,220,2013-10-02 00:55:00
6:15 PM,89.6,37.4,16,29.86,10.0,West,4.6,-,N/A,,Clear,260,2013-10-02 01:15:00
6:35 PM,86.0,37.4,18,29.86,10.0,Calm,Calm,-,N/A,,Clear,0,2013-10-02 01:35:00
6:55 PM,84.2,37.4,19,29.86,10.0,West,3.5,-,N/A,,Clear,260,2013-10-02 01:55:00
7:15 PM,80.6,37.4,21,29.86,10.0,Calm,Calm,-,N/A,,Clear,0,2013-10-02 02:15:00
7:35 PM,78.8,37.4,23,29.87,10.0,NNW,5.8,-,N/A,,Clear,330,2013-10-02 02:35:00
7:55 PM,78.8,37.4,23,29.87,10.0,NNW,4.6,-,N/A,,Clear,340,2013-10-02 02:55:00
8:15 PM,77.0,37.4,24,29.88,10.0,Calm,Calm,-,N/A,,Clear,0,2013-10-02 03:15:00
8:35 PM,77.0,37.4,24,29.89,10.0,WSW,5.8,-,N/A,,Clear,240,2013-10-02 03:35:00
8:55 PM,78.8,37.4,23,29.89,10.0,WNW,8.1,-,N/A,,Clear,290,2013-10-02 03:55:00
9:15 PM,78.8,37.4,23,29.89,10.0,NW,5.8,-,N/A,,Clear,310,2013-10-02 04:15:00
9:35 PM,75.2,37.4,25,29.90,10.0,NW,5.8,-,N/A,,Clear,310,2013-10-02 04:35:00
9:55 PM,77.0,35.6,22,29.90,10.0,NNW,5.8,-,N/A,,Clear,330,2013-10-02 04:55:00
11:15 PM,75.2,37.4,25,29.90,10.0,WNW,5.8,-,N/A,,Clear,290,2013-10-02 06:15:00
11:35 PM,75.2,39.2,27,29.91,10.0,West,6.9,-,N/A,,Clear,270,2013-10-02 06:35:00
11:55 PM,75.2,39.2,27,29.91,10.0,West,5.8,-,N/A,,Clear,280,2013-10-02 06:55:00